Location: Bas-Clignon
(44.2000°N, 6.6333°E)
Time: 12:53:59
(UTC+00:00)

Cosmos 2333 - Pass Details

Date: 03 February 2023
Orbit: 828 x 867 km, 70.9° (Epoch: 19 March)

Event Time Altitude Azimuth Distance (km) Brightness Sun altitude
Rises 18:31:46 0° 198° (SSW) 3,356 7.6 -19.3°
Reaches altitude 10° 18:34:11 10° 197° (SSW) 2,430 6.8 -19.7°
Maximum altitude 18:39:44 76° 113° (ESE) 865 4.0 -20.7°
Enters shadow 18:43:19 23° 31° (NNE) 1,708 5.5 -21.3°
